Time,TemperatureF,DewpointF,PressureIn,WindDirection,WindDirectionDegrees,WindSpeedMPH,WindSpeedGustMPH,Humidity,HourlyPrecipIn,Conditions,Clouds,dailyrainin,SoftwareType,DateUTC
2013-09-22 00:01:00,78.4,78.4,29.85,North,-999,0.0,0.0,100,0.00,,,-99.99,WeatherLink 5.5,2013-09-22 04:01:00,
2013-09-22 00:11:00,78.2,-99.9,29.86,North,-999,0.0,0.0,-999,0.00,,,-99.99,WeatherLink 5.5,2013-09-22 04:11:00,
2013-09-22 00:21:00,78.0,-99.9,29.85,North,-999,0.0,0.0,-999,0.00,,,-99.99,WeatherLink 5.5,2013-09-22 04:21:00,
2013-09-22 00:25:00,77.8,-99.9,29.85,North,-999,0.0,0.0,-999,0.00,,,-99.99,WeatherLink 5.5,2013-09-22 04:25:00,
2013-09-22 00:31:00,77.8,-99.9,29.85,North,-999,0.0,0.0,-999,0.00,,,-99.99,WeatherLink 5.5,2013-09-22 04:31:00,
2013-09-22 00:40:00,77.7,-99.9,29.85,East,90,0.0,2.0,-999,0.00,,,-99.99,WeatherLink 5.5,2013-09-22 04:40:00,
2013-09-22 00:46:00,77.8,-99.9,29.84,North,-999,0.0,0.0,-999,0.00,,,-99.99,WeatherLink 5.5,2013-09-22 04:46:00,
2013-09-22 00:55:00,77.8,-99.9,29.84,North,-999,0.0,0.0,-999,0.00,,,-99.99,WeatherLink 5.5,2013-09-22 04:55:00,
2013-09-22 01:01:00,77.8,77.8,29.84,North,-999,0.0,0.0,100,0.00,,,-99.99,WeatherLink 5.5,2013-09-22 05:01:00,
2013-09-22 01:11:00,77.4,-99.9,29.84,North,-999,0.0,0.0,-999,0.00,,,-99.99,WeatherLink 5.5,2013-09-22 05:11:00,
2013-09-22 01:21:00,77.1,77.1,29.84,North,-999,0.0,0.0,100,0.00,,,-99.99,WeatherLink 5.5,2013-09-22 05:21:00,
2013-09-22 01:26:00,76.8,76.8,29.84,North,-999,0.0,0.0,100,0.00,,,-99.99,WeatherLink 5.5,2013-09-22 05:26:00,
2013-09-22 01:36:00,76.7,76.7,29.84,North,-999,0.0,0.0,100,0.00,,,-99.99,WeatherLink 5.5,2013-09-22 05:36:00,
2013-09-22 01:45:00,76.6,-99.9,29.83,North,-999,0.0,0.0,-999,0.00,,,-99.99,WeatherLink 5.5,2013-09-22 05:45:00,
2013-09-22 01:51:00,76.5,-99.9,29.83,North,-999,0.0,0.0,-999,0.00,,,-99.99,WeatherLink 5.5,2013-09-22 05:51:00,
2013-09-22 01:56:00,76.4,-99.9,29.83,North,-999,0.0,0.0,-999,0.00,,,-99.99,WeatherLink 5.5,2013-09-22 05:56:00,
2013-09-22 02:02:00,76.3,-99.9,29.83,North,-999,0.0,0.0,-999,0.00,,,-99.99,WeatherLink 5.5,2013-09-22 06:02:00,
2013-09-22 02:10:00,76.2,-99.9,29.83,North,-999,0.0,0.0,-999,0.00,,,-99.99,WeatherLink 5.5,2013-09-22 06:10:00,
2013-09-22 02:16:00,76.2,-99.9,29.82,North,-999,0.0,0.0,-999,0.00,,,-99.99,WeatherLink 5.5,2013-09-22 06:16:00,
2013-09-22 02:26:00,76.1,-99.9,29.83,North,-999,0.0,0.0,-999,0.00,,,-99.99,WeatherLink 5.5,2013-09-22 06:26:00,
2013-09-22 02:36:00,76.0,-99.9,29.82,North,-999,0.0,1.0,-999,0.00,,,-99.99,WeatherLink 5.5,2013-09-22 06:36:00,
2013-09-22 02:45:00,76.1,-99.9,29.82,North,-999,0.0,0.0,-999,0.00,,,-99.99,WeatherLink 5.5,2013-09-22 06:45:00,
2013-09-22 02:51:00,76.2,-99.9,29.82,North,-999,0.0,0.0,-999,0.00,,,-99.99,WeatherLink 5.5,2013-09-22 06:51:00,
2013-09-22 03:01:00,76.1,-99.9,29.81,North,-999,0.0,0.0,-999,0.00,,,-99.99,WeatherLink 5.5,2013-09-22 07:01:00,
2013-09-22 03:11:00,76.1,76.1,29.81,North,-999,0.0,0.0,100,0.00,,,-99.99,WeatherLink 5.5,2013-09-22 07:11:00,
2013-09-22 03:21:00,76.0,-99.9,29.80,North,-999,0.0,0.0,-999,0.00,,,-99.99,WeatherLink 5.5,2013-09-22 07:21:00,
2013-09-22 03:30:00,75.9,-99.9,29.81,North,-999,0.0,0.0,-999,0.00,,,-99.99,WeatherLink 5.5,2013-09-22 07:30:00,
2013-09-22 03:36:00,75.9,-99.9,29.81,North,-999,0.0,0.0,-999,0.00,,,-99.99,WeatherLink 5.5,2013-09-22 07:36:00,
2013-09-22 03:46:00,75.8,-99.9,29.81,North,-999,0.0,0.0,-999,0.00,,,-99.99,WeatherLink 5.5,2013-09-22 07:46:00,
2013-09-22 03:56:00,75.7,-99.9,29.81,North,-999,0.0,0.0,-999,0.00,,,-99.99,WeatherLink 5.5,2013-09-22 07:56:00,
2013-09-22 04:06:00,75.6,-99.9,29.81,North,-999,0.0,0.0,-999,0.00,,,-99.99,WeatherLink 5.5,2013-09-22 08:06:00,
2013-09-22 04:15:00,75.8,-99.9,29.81,North,-999,0.0,0.0,-999,0.00,,,-99.99,WeatherLink 5.5,2013-09-22 08:15:00,
2013-09-22 04:20:00,75.8,-99.9,29.81,North,-999,0.0,0.0,-999,0.00,,,-99.99,WeatherLink 5.5,2013-09-22 08:20:00,
2013-09-22 04:26:00,75.8,-99.9,29.81,North,-999,0.0,0.0,-999,0.00,,,-99.99,WeatherLink 5.5,2013-09-22 08:26:00,
2013-09-22 04:36:00,76.0,76.0,29.81,North,-999,0.0,0.0,100,0.00,,,-99.99,WeatherLink 5.5,2013-09-22 08:36:00,
2013-09-22 04:45:00,76.0,-99.9,29.80,North,-999,0.0,0.0,-999,0.00,,,-99.99,WeatherLink 5.5,2013-09-22 08:45:00,
2013-09-22 04:51:00,75.9,-99.9,29.80,North,-999,0.0,0.0,-999,0.00,,,-99.99,WeatherLink 5.5,2013-09-22 08:51:00,
2013-09-22 05:01:00,75.8,-99.9,29.81,North,-999,0.0,0.0,-999,0.00,,,-99.99,WeatherLink 5.5,2013-09-22 09:01:00,
2013-09-22 05:11:00,75.7,-99.9,29.80,North,-999,0.0,0.0,-999,0.00,,,-99.99,WeatherLink 5.5,2013-09-22 09:11:00,
2013-09-22 05:21:00,75.8,-99.9,29.80,North,-999,0.0,0.0,-999,0.00,,,-99.99,WeatherLink 5.5,2013-09-22 09:21:00,
2013-09-22 05:31:00,76.0,-99.9,29.80,North,-999,0.0,0.0,-999,0.00,,,-99.99,WeatherLink 5.5,2013-09-22 09:31:00,
2013-09-22 05:41:00,76.1,-99.9,29.81,North,-999,0.0,0.0,-999,0.00,,,-99.99,WeatherLink 5.5,2013-09-22 09:41:00,
2013-09-22 05:50:00,76.1,-99.9,29.81,North,-999,0.0,0.0,-999,0.00,,,-99.99,WeatherLink 5.5,2013-09-22 09:50:00,
2013-09-22 05:56:00,76.0,-99.9,29.81,North,-999,0.0,0.0,-999,0.00,,,-99.99,WeatherLink 5.5,2013-09-22 09:56:00,
2013-09-22 06:06:00,75.9,-99.9,29.81,North,-999,0.0,0.0,-999,0.00,,,-99.99,WeatherLink 5.5,2013-09-22 10:06:00,
2013-09-22 06:16:00,75.8,-99.9,29.81,North,-999,0.0,0.0,-999,0.00,,,-99.99,WeatherLink 5.5,2013-09-22 10:16:00,
2013-09-22 06:25:00,75.7,-99.9,29.82,North,-999,0.0,0.0,-999,0.00,,,-99.99,WeatherLink 5.5,2013-09-22 10:25:00,
2013-09-22 06:31:00,75.7,-99.9,29.82,North,-999,0.0,0.0,-999,0.00,,,-99.99,WeatherLink 5.5,2013-09-22 10:31:00,
2013-09-22 06:40:00,75.7,-99.9,29.82,North,-999,0.0,0.0,-999,0.00,,,-99.99,WeatherLink 5.5,2013-09-22 10:40:00,
2013-09-22 06:46:00,75.8,-99.9,29.83,North,-999,0.0,0.0,-999,0.00,,,-99.99,WeatherLink 5.5,2013-09-22 10:46:00,
2013-09-22 06:50:00,75.7,-99.9,29.83,North,-999,0.0,0.0,-999,0.00,,,-99.99,WeatherLink 5.5,2013-09-22 10:50:00,
2013-09-22 07:01:00,75.6,-99.9,29.82,North,-999,0.0,0.0,-999,0.00,,,-99.99,WeatherLink 5.5,2013-09-22 11:01:00,
2013-09-22 07:11:00,75.4,-99.9,29.83,North,-999,0.0,0.0,-999,0.00,,,-99.99,WeatherLink 5.5,2013-09-22 11:11:00,
2013-09-22 07:21:00,75.4,-99.9,29.84,North,-999,0.0,0.0,-999,0.00,,,-99.99,WeatherLink 5.5,2013-09-22 11:21:00,
2013-09-22 07:31:00,75.4,-99.9,29.82,North,-999,0.0,0.0,-999,0.00,,,-99.99,WeatherLink 5.5,2013-09-22 11:31:00,
2013-09-22 07:40:00,75.5,70.0,29.86,North,-999,0.0,0.0,83,0.00,,,-99.99,WeatherLink 5.5,2013-09-22 11:40:00,
2013-09-22 07:46:00,75.5,-99.9,29.83,North,-999,0.0,0.0,-999,0.00,,,-99.99,WeatherLink 5.5,2013-09-22 11:46:00,
2013-09-22 07:56:00,75.8,-99.9,29.84,East,90,0.0,2.0,-999,0.00,,,-99.99,WeatherLink 5.5,2013-09-22 11:56:00,
2013-09-22 08:06:00,76.6,-99.9,29.83,East,90,0.0,1.0,-999,0.00,,,-99.99,WeatherLink 5.5,2013-09-22 12:06:00,
2013-09-22 08:16:00,76.9,-99.9,29.82,East,90,0.0,3.0,-999,0.00,,,-99.99,WeatherLink 5.5,2013-09-22 12:16:00,
2013-09-22 08:25:00,77.4,-99.9,29.84,North,-999,0.0,0.0,-999,0.00,,,-99.99,WeatherLink 5.5,2013-09-22 12:25:00,
2013-09-22 08:31:00,77.6,-99.9,29.87,East,90,0.0,1.0,-999,0.00,,,-99.99,WeatherLink 5.5,2013-09-22 12:31:00,
2013-09-22 08:41:00,77.9,-99.9,29.83,East,90,0.0,3.0,-999,0.00,,,-99.99,WeatherLink 5.5,2013-09-22 12:41:00,
2013-09-22 08:51:00,78.2,72.3,29.84,East,90,0.0,3.0,82,0.00,,,-99.99,WeatherLink 5.5,2013-09-22 12:51:00,
2013-09-22 09:01:00,78.5,-99.9,29.84,North,-999,0.0,0.0,-999,0.00,,,-99.99,WeatherLink 5.5,2013-09-22 13:01:00,
2013-09-22 09:11:00,79.2,-99.9,29.85,East,90,0.0,1.0,-999,0.00,,,-99.99,WeatherLink 5.5,2013-09-22 13:11:00,
2013-09-22 09:21:00,80.1,-99.9,29.86,ENE,67,0.0,1.0,-999,0.00,,,-99.99,WeatherLink 5.5,2013-09-22 13:21:00,
2013-09-22 09:31:00,80.9,-99.9,29.86,ESE,112,0.0,5.0,-999,0.00,,,-99.99,WeatherLink 5.5,2013-09-22 13:31:00,
2013-09-22 09:40:00,81.7,-99.9,29.87,South,180,0.0,1.0,-999,0.00,,,-99.99,WeatherLink 5.5,2013-09-22 13:40:00,
2013-09-22 09:46:00,82.2,-99.9,29.86,South,180,1.0,6.0,-999,0.00,,,-99.99,WeatherLink 5.5,2013-09-22 13:46:00,
2013-09-22 09:50:00,83.1,-99.9,29.85,SSW,202,3.0,9.0,-999,0.00,,,-99.99,WeatherLink 5.5,2013-09-22 13:50:00,
2013-09-22 09:51:00,82.7,-99.9,29.88,SSW,202,1.0,7.0,-999,0.00,,,-99.99,WeatherLink 5.5,2013-09-22 13:51:00,
2013-09-22 09:55:00,83.4,-99.9,29.91,South,180,2.0,8.0,-999,0.00,,,-99.99,WeatherLink 5.5,2013-09-22 13:55:00,
2013-09-22 10:00:00,83.5,-99.9,29.91,South,180,4.0,13.0,-999,0.00,,,-99.99,WeatherLink 5.5,2013-09-22 14:00:00,
2013-09-22 10:05:00,83.5,-99.9,29.87,SSW,202,2.0,9.0,-999,0.00,,,-99.99,WeatherLink 5.5,2013-09-22 14:05:00,
2013-09-22 10:10:00,83.9,-99.9,29.89,South,180,3.0,10.0,-999,0.00,,,-99.99,WeatherLink 5.5,2013-09-22 14:10:00,
2013-09-22 10:15:00,84.2,-99.9,29.85,South,180,3.0,10.0,-999,0.00,,,-99.99,WeatherLink 5.5,2013-09-22 14:15:00,
2013-09-22 10:20:00,84.5,-99.9,29.86,SSW,202,3.0,9.0,-999,0.00,,,-99.99,WeatherLink 5.5,2013-09-22 14:20:00,
2013-09-22 10:25:00,84.6,-99.9,29.86,South,180,4.0,10.0,-999,0.00,,,-99.99,WeatherLink 5.5,2013-09-22 14:25:00,
2013-09-22 10:30:00,84.6,-99.9,29.86,South,180,4.0,10.0,-999,0.00,,,-99.99,WeatherLink 5.5,2013-09-22 14:30:00,
2013-09-22 10:35:00,84.7,-99.9,29.86,SSW,202,3.0,9.0,-999,0.00,,,-99.99,WeatherLink 5.5,2013-09-22 14:35:00,
2013-09-22 10:40:00,85.0,-99.9,29.86,SSW,202,3.0,10.0,-999,0.00,,,-99.99,WeatherLink 5.5,2013-09-22 14:40:00,
2013-09-22 10:45:00,85.7,-99.9,29.85,South,180,0.0,4.0,-999,0.00,,,-99.99,WeatherLink 5.5,2013-09-22 14:45:00,
2013-09-22 10:50:00,86.6,-99.9,29.86,South,180,4.0,10.0,-999,0.00,,,-99.99,WeatherLink 5.5,2013-09-22 14:50:00,
2013-09-22 10:55:00,87.0,-99.9,29.86,South,180,2.0,8.0,-999,0.00,,,-99.99,WeatherLink 5.5,2013-09-22 14:55:00,
2013-09-22 11:00:00,87.4,-99.9,29.86,South,180,1.0,9.0,-999,0.00,,,-99.99,WeatherLink 5.5,2013-09-22 15:00:00,
2013-09-22 11:05:00,87.9,-99.9,29.85,SSW,202,3.0,9.0,-999,0.00,,,-99.99,WeatherLink 5.5,2013-09-22 15:05:00,
2013-09-22 11:10:00,88.1,-99.9,29.85,SSW,202,2.0,9.0,-999,0.00,,,-99.99,WeatherLink 5.5,2013-09-22 15:10:00,
2013-09-22 11:15:00,88.4,88.4,29.86,SSW,202,1.0,6.0,100,0.00,,,-99.99,WeatherLink 5.5,2013-09-22 15:15:00,
2013-09-22 11:20:00,88.9,-99.9,29.85,SSW,202,0.0,8.0,-999,0.00,,,-99.99,WeatherLink 5.5,2013-09-22 15:20:00,
2013-09-22 11:25:00,89.1,89.1,29.85,SSW,202,3.0,9.0,100,0.00,,,-99.99,WeatherLink 5.5,2013-09-22 15:25:00,
2013-09-22 11:30:00,88.7,88.7,29.85,SSW,202,1.0,8.0,100,0.00,,,-99.99,WeatherLink 5.5,2013-09-22 15:30:00,
2013-09-22 11:35:00,88.4,-99.9,29.86,SSW,202,1.0,7.0,-999,0.00,,,-99.99,WeatherLink 5.5,2013-09-22 15:35:00,
2013-09-22 11:46:00,88.5,-99.9,29.86,SW,225,3.0,9.0,-999,0.00,,,-99.99,WeatherLink 5.5,2013-09-22 15:46:00,
2013-09-22 11:55:00,87.9,-99.9,29.86,SW,225,2.0,7.0,-999,0.00,,,-99.99,WeatherLink 5.5,2013-09-22 15:55:00,
2013-09-22 12:05:00,88.3,88.3,29.86,SW,225,2.0,9.0,100,0.00,,,-99.99,WeatherLink 5.5,2013-09-22 16:05:00,
2013-09-22 12:15:00,88.7,88.7,29.85,SW,225,2.0,9.0,100,0.00,,,-99.99,WeatherLink 5.5,2013-09-22 16:15:00,
2013-09-22 12:20:00,87.9,-99.9,29.84,SW,225,2.0,7.0,0,0.00,,,-99.99,WeatherLink 5.5,2013-09-22 16:20:00,
2013-09-22 12:30:00,87.1,-99.9,29.84,SW,225,1.0,7.0,0,0.00,,,-99.99,WeatherLink 5.5,2013-09-22 16:30:00,
2013-09-22 12:35:00,87.1,-99.9,29.84,SW,225,2.0,8.0,0,0.00,,,-99.99,WeatherLink 5.5,2013-09-22 16:35:00,
2013-09-22 12:45:00,87.3,48.2,29.83,SSW,202,2.0,7.0,26,0.00,,,-99.99,WeatherLink 5.5,2013-09-22 16:45:00,
2013-09-22 12:50:00,87.2,56.2,29.85,SSW,202,2.0,9.0,35,0.00,,,-99.99,WeatherLink 5.5,2013-09-22 16:50:00,
2013-09-22 13:00:00,88.8,65.4,29.84,South,180,1.0,7.0,46,0.00,,,-99.99,WeatherLink 5.5,2013-09-22 17:00:00,
2013-09-22 13:05:00,88.6,78.8,29.84,South,180,0.0,7.0,73,0.00,,,-99.99,WeatherLink 5.5,2013-09-22 17:05:00,
2013-09-22 13:15:00,89.1,78.0,29.83,South,180,1.0,6.0,70,0.00,,,-99.99,WeatherLink 5.5,2013-09-22 17:15:00,
2013-09-22 13:20:00,89.8,86.5,29.83,South,180,2.0,7.0,90,0.00,,,-99.99,WeatherLink 5.5,2013-09-22 17:20:00,
2013-09-22 13:30:00,89.6,89.6,29.83,SSW,202,0.0,6.0,100,0.00,,,-99.99,WeatherLink 5.5,2013-09-22 17:30:00,
2013-09-22 13:35:00,89.2,89.2,29.83,SSW,202,0.0,1.0,100,0.00,,,-99.99,WeatherLink 5.5,2013-09-22 17:35:00,
2013-09-22 13:45:00,89.1,89.1,29.82,SW,225,3.0,11.0,100,0.00,,,-99.99,WeatherLink 5.5,2013-09-22 17:45:00,
2013-09-22 13:50:00,89.4,89.1,29.82,SSW,202,4.0,10.0,99,0.00,,,-99.99,WeatherLink 5.5,2013-09-22 17:50:00,
2013-09-22 14:00:00,89.6,51.2,29.82,SSW,202,1.0,6.0,27,0.00,,,-99.99,WeatherLink 5.5,2013-09-22 18:00:00,
2013-09-22 14:05:00,89.4,-23.6,29.82,SSW,202,2.0,7.0,1,0.00,,,-99.99,WeatherLink 5.5,2013-09-22 18:05:00,
2013-09-22 14:15:00,89.0,89.0,29.82,SW,225,1.0,6.0,100,0.00,,,-99.99,WeatherLink 5.5,2013-09-22 18:15:00,
2013-09-22 14:21:00,89.3,-99.9,29.82,SW,225,3.0,8.0,0,0.00,,,-99.99,WeatherLink 5.5,2013-09-22 18:21:00,
2013-09-22 14:30:00,90.1,90.1,29.82,SW,225,2.0,6.0,100,0.00,,,-99.99,WeatherLink 5.5,2013-09-22 18:30:00,
2013-09-22 14:36:00,90.3,90.3,29.82,SW,225,2.0,8.0,100,0.00,,,-99.99,WeatherLink 5.5,2013-09-22 18:36:00,
2013-09-22 14:45:00,92.0,92.0,29.81,SW,225,3.0,13.0,100,0.00,,,-99.99,WeatherLink 5.5,2013-09-22 18:45:00,
2013-09-22 14:55:00,92.9,92.9,29.81,SW,225,4.0,11.0,100,0.00,,,-99.99,WeatherLink 5.5,2013-09-22 18:55:00,
2013-09-22 15:06:00,93.1,93.1,29.81,SW,225,3.0,9.0,100,0.00,,,-99.99,WeatherLink 5.5,2013-09-22 19:06:00,
2013-09-22 15:15:00,92.7,92.7,29.81,WSW,247,2.0,9.0,100,0.00,,,-99.99,WeatherLink 5.5,2013-09-22 19:15:00,
2013-09-22 15:21:00,92.2,92.2,29.80,SW,225,3.0,9.0,100,0.00,,,-99.99,WeatherLink 5.5,2013-09-22 19:21:00,
2013-09-22 15:30:00,92.7,-99.9,29.80,SW,225,3.0,10.0,-999,0.00,,,-99.99,WeatherLink 5.5,2013-09-22 19:30:00,
2013-09-22 15:40:00,92.4,92.4,29.80,South,180,1.0,7.0,100,0.00,,,-99.99,WeatherLink 5.5,2013-09-22 19:40:00,
2013-09-22 15:50:00,93.2,92.9,29.79,SW,225,5.0,12.0,99,0.00,,,-99.99,WeatherLink 5.5,2013-09-22 19:50:00,
2013-09-22 15:55:00,93.2,91.2,29.79,SW,225,3.0,10.0,94,0.00,,,-99.99,WeatherLink 5.5,2013-09-22 19:55:00,
2013-09-22 16:05:00,93.3,88.5,29.78,SW,225,4.0,11.0,86,0.00,,,-99.99,WeatherLink 5.5,2013-09-22 20:05:00,
2013-09-22 16:15:00,93.7,88.1,29.78,SSW,202,5.0,12.0,84,0.00,,,-99.99,WeatherLink 5.5,2013-09-22 20:15:00,
2013-09-22 16:20:00,93.4,87.1,29.78,SW,225,4.0,11.0,82,0.00,,,-99.99,WeatherLink 5.5,2013-09-22 20:20:00,
2013-09-22 16:30:00,93.7,86.6,29.78,South,180,2.0,9.0,80,0.00,,,-99.99,WeatherLink 5.5,2013-09-22 20:30:00,
2013-09-22 16:35:00,93.9,84.3,29.78,SW,225,4.0,11.0,74,0.00,,,-99.99,WeatherLink 5.5,2013-09-22 20:35:00,
2013-09-22 16:46:00,93.9,82.6,29.78,SW,225,2.0,8.0,70,0.00,,,-99.99,WeatherLink 5.5,2013-09-22 20:46:00,
2013-09-22 16:55:00,93.5,80.4,29.78,WSW,247,3.0,10.0,66,0.00,,,-99.99,WeatherLink 5.5,2013-09-22 20:55:00,
2013-09-22 17:05:00,93.3,80.2,29.78,SSW,202,4.0,10.0,66,0.00,,,-99.99,WeatherLink 5.5,2013-09-22 21:05:00,
2013-09-22 17:15:00,92.5,79.5,29.78,SSW,202,1.0,6.0,66,0.00,,,-99.99,WeatherLink 5.5,2013-09-22 21:15:00,
2013-09-22 17:21:00,91.7,79.6,29.78,SSW,202,1.0,7.0,68,0.00,,,-99.99,WeatherLink 5.5,2013-09-22 21:21:00,
2013-09-22 17:30:00,91.5,80.8,29.78,SW,225,1.0,8.0,71,0.00,,,-99.99,WeatherLink 5.5,2013-09-22 21:30:00,
2013-09-22 17:35:00,91.4,81.9,29.78,WSW,247,2.0,8.0,74,0.00,,,-99.99,WeatherLink 5.5,2013-09-22 21:35:00,
2013-09-22 17:45:00,90.6,82.8,29.78,SW,225,2.0,8.0,78,0.00,,,-99.99,WeatherLink 5.5,2013-09-22 21:45:00,
2013-09-22 17:50:00,90.5,83.1,29.79,WSW,247,1.0,7.0,79,0.00,,,-99.99,WeatherLink 5.5,2013-09-22 21:50:00,
2013-09-22 18:01:00,90.1,84.6,29.79,WSW,247,0.0,4.0,84,0.00,,,-99.99,WeatherLink 5.5,2013-09-22 22:01:00,
2013-09-22 18:10:00,90.0,85.6,29.80,SW,225,2.0,9.0,87,0.00,,,-99.99,WeatherLink 5.5,2013-09-22 22:10:00,
2013-09-22 18:15:00,89.9,86.2,29.80,SW,225,1.0,4.0,89,0.00,,,-99.99,WeatherLink 5.5,2013-09-22 22:15:00,
2013-09-22 18:20:00,89.6,84.9,29.80,SW,225,3.0,9.0,86,0.00,,,-99.99,WeatherLink 5.5,2013-09-22 22:20:00,
2013-09-22 18:25:00,89.6,84.9,29.80,SW,225,3.0,9.0,86,0.00,,,-99.99,WeatherLink 5.5,2013-09-22 22:25:00,
2013-09-22 18:31:00,89.4,84.7,29.81,SW,225,1.0,5.0,86,0.00,,,-99.99,WeatherLink 5.5,2013-09-22 22:31:00,
2013-09-22 18:40:00,88.8,83.7,29.81,SW,225,1.0,8.0,85,0.00,,,-99.99,WeatherLink 5.5,2013-09-22 22:40:00,
2013-09-22 18:46:00,88.4,83.3,29.81,SW,225,1.0,7.0,85,0.00,,,-99.99,WeatherLink 5.5,2013-09-22 22:46:00,
2013-09-22 18:55:00,88.0,83.6,29.81,SW,225,0.0,1.0,87,0.00,,,-99.99,WeatherLink 5.5,2013-09-22 22:55:00,
2013-09-22 19:00:00,87.9,84.2,29.81,SW,225,0.0,4.0,89,0.00,,,-99.99,WeatherLink 5.5,2013-09-22 23:00:00,
2013-09-22 19:10:00,87.4,85.5,29.81,SW,225,0.0,3.0,94,0.00,,,-99.99,WeatherLink 5.5,2013-09-22 23:10:00,
2013-09-22 19:20:00,87.0,87.0,29.82,SW,225,0.0,5.0,100,0.00,,,-99.99,WeatherLink 5.5,2013-09-22 23:20:00,
2013-09-22 19:26:00,86.9,86.9,29.82,SW,225,0.0,1.0,100,0.00,,,-99.99,WeatherLink 5.5,2013-09-22 23:26:00,
2013-09-22 19:35:00,86.7,86.7,29.82,SW,225,0.0,1.0,100,0.00,,,-99.99,WeatherLink 5.5,2013-09-22 23:35:00,
2013-09-22 19:41:00,86.6,86.6,29.83,SW,225,0.0,4.0,100,0.00,,,-99.99,WeatherLink 5.5,2013-09-22 23:41:00,
2013-09-22 19:50:00,86.4,86.4,29.83,SW,225,0.0,1.0,100,0.00,,,-99.99,WeatherLink 5.5,2013-09-22 23:50:00,
2013-09-22 19:56:00,86.2,86.2,29.83,SW,225,0.0,1.0,100,0.00,,,-99.99,WeatherLink 5.5,2013-09-22 23:56:00,
2013-09-22 20:05:00,85.8,85.8,29.84,SW,225,0.0,1.0,100,0.00,,,-99.99,WeatherLink 5.5,2013-09-23 00:05:00,
2013-09-22 20:11:00,85.6,85.6,29.83,SW,225,0.0,3.0,100,0.00,,,-99.99,WeatherLink 5.5,2013-09-23 00:11:00,
2013-09-22 20:21:00,85.4,85.4,29.84,SW,225,0.0,1.0,100,0.00,,,-99.99,WeatherLink 5.5,2013-09-23 00:21:00,
2013-09-22 20:30:00,85.0,85.0,29.84,North,-999,0.0,0.0,100,0.00,,,-99.99,WeatherLink 5.5,2013-09-23 00:30:00,
2013-09-22 20:36:00,84.8,84.8,29.84,North,-999,0.0,0.0,100,0.00,,,-99.99,WeatherLink 5.5,2013-09-23 00:36:00,
2013-09-22 20:45:00,84.2,84.2,29.84,North,-999,0.0,0.0,100,0.00,,,-99.99,WeatherLink 5.5,2013-09-23 00:45:00,
2013-09-22 20:55:00,83.8,-99.9,29.84,North,-999,0.0,0.0,0,0.00,,,-99.99,WeatherLink 5.5,2013-09-23 00:55:00,
2013-09-22 21:01:00,83.5,12.9,29.85,North,-999,0.0,0.0,7,0.00,,,-99.99,WeatherLink 5.5,2013-09-23 01:01:00,
2013-09-22 21:10:00,82.9,71.7,29.85,North,-999,0.0,0.0,69,0.00,,,-99.99,WeatherLink 5.5,2013-09-23 01:10:00,
2013-09-22 21:20:00,82.6,82.6,29.85,North,-999,0.0,0.0,100,0.00,,,-99.99,WeatherLink 5.5,2013-09-23 01:20:00,
2013-09-22 21:30:00,82.6,82.6,29.86,SW,225,1.0,4.0,100,0.00,,,-99.99,WeatherLink 5.5,2013-09-23 01:30:00,
2013-09-22 21:40:00,82.9,82.9,29.86,SW,225,0.0,3.0,100,0.00,,,-99.99,WeatherLink 5.5,2013-09-23 01:40:00,
2013-09-22 21:50:00,82.9,82.9,29.87,SW,225,0.0,1.0,100,0.00,,,-99.99,WeatherLink 5.5,2013-09-23 01:50:00,
2013-09-22 21:55:00,82.8,82.8,29.86,SW,225,0.0,3.0,100,0.00,,,-99.99,WeatherLink 5.5,2013-09-23 01:55:00,
2013-09-22 22:06:00,82.7,82.7,29.87,North,-999,0.0,0.0,100,0.00,,,-99.99,WeatherLink 5.5,2013-09-23 02:06:00,
2013-09-22 22:15:00,82.4,81.1,29.87,North,-999,0.0,1.0,96,0.00,,,-99.99,WeatherLink 5.5,2013-09-23 02:15:00,
2013-09-22 22:21:00,82.3,78.7,29.87,North,-999,0.0,0.0,89,0.00,,,-99.99,WeatherLink 5.5,2013-09-23 02:21:00,
2013-09-22 22:30:00,82.0,72.1,29.87,North,-999,0.0,0.0,72,0.00,,,-99.99,WeatherLink 5.5,2013-09-23 02:30:00,
2013-09-22 22:35:00,81.9,67.1,29.87,North,-999,0.0,0.0,61,0.00,,,-99.99,WeatherLink 5.5,2013-09-23 02:35:00,
2013-09-22 22:45:00,81.8,59.6,29.87,North,-999,0.0,0.0,47,0.00,,,-99.99,WeatherLink 5.5,2013-09-23 02:45:00,
2013-09-22 22:55:00,81.6,49.7,29.86,North,-999,0.0,0.0,33,0.00,,,-99.99,WeatherLink 5.5,2013-09-23 02:55:00,
2013-09-22 23:01:00,81.6,45.3,29.88,North,-999,0.0,0.0,28,0.00,,,-99.99,WeatherLink 5.5,2013-09-23 03:01:00,
2013-09-22 23:12:00,81.5,33.9,29.88,North,-999,0.0,0.0,18,0.00,,,-99.99,WeatherLink 5.5,2013-09-23 03:12:00,
2013-09-22 23:20:00,81.4,11.4,29.88,North,-999,0.0,1.0,7,0.00,,,-99.99,WeatherLink 5.5,2013-09-23 03:20:00,
2013-09-22 23:30:00,81.4,-99.9,29.88,North,-999,0.0,0.0,0,0.00,,,-99.99,WeatherLink 5.5,2013-09-23 03:30:00,
2013-09-22 23:40:00,81.5,-99.9,29.88,SW,225,0.0,1.0,0,0.00,,,-99.99,WeatherLink 5.5,2013-09-23 03:40:00,
2013-09-22 23:41:00,81.5,-99.9,29.88,SW,225,0.0,3.0,0,0.00,,,-99.99,WeatherLink 5.5,2013-09-23 03:41:00,
2013-09-22 23:50:00,81.5,-99.9,29.88,SW,225,0.0,2.0,0,0.00,,,-99.99,WeatherLink 5.5,2013-09-23 03:50:00,